Location: T�bingen+AIT
(48.5342°N, 9.0700°E)
Time: 15:06:38
(UTC+01:00)

H-2A R/B - Pass Details

Date: 14 September 2017
Orbit: 734 x 837 km, 98.4° (Epoch: 17 November)

Event Time Altitude Azimuth Distance (km) Brightness Sun altitude
Exits shadow 20:44:47 10° 73° (ENE) 2,264 4.0 -11.6°
Reaches altitude 10° 20:44:53 10° 72° (ENE) 2,251 3.9 -11.6°
Maximum altitude 20:46:32 12° 52° (NE) 2,143 4.0 -11.9°
Drops below altitude 10° 20:48:13 10° 32° (NNE) 2,267 4.3 -12.1°
Sets 20:52:07 0° 2° (N) 3,215 5.5 -12.7°
